Home > Weather > Mainz > Past weeks

Flag for Germany Weather for the Past 2 Weeks in Mainz, Rhineland-Palatinate, Germany

Now
52 °F

Clear.


Feels Like: 52 °F
Forecast: 47 / 58 °F
Wind: 2 mph from North

Location: Wiesbaden Airport

Current Time: May 3, 2016 at 12:22:49 AM

Latest Report: May 2, 2016 at 11:58 PM


Visibility: N/A

Pressure: 30.10 "Hg

Humidity: 72%

Dew Point: 43 °F

Location of MainzLocation

Historic Weather in Mainz — Graph

°F

Mainz Temperature Yesterday

Maximum temperature yesterday: 68 °F (at 4:58 PM)
Minimum temperature yesterday: 48 °F (at 6:58 AM)
Average temperature yesterday: 58 °F

High & Low Weather Summary for the Past Weeks

 TemperatureHumidityPressure
High68 °F (May 2, 4:58 PM)93% (Apr 25, 10:00 PM)30.46 "Hg (Apr 25, 10:00 PM)
Low31 °F (Apr 24, 6:58 AM)27% (Apr 20, 3:58 PM)29.58 "Hg (Apr 26, 1:03 AM)
Average47 °F64%30.04 "Hg
* Reported Apr 17 10:58 PM — May 2 10:58 PM, Mainz, Weather by CustomWeather, © 2016

Note: Actual official high and low records may vary slightly from our data, if they occured in-between our weather recording intervals... More about our weather records

Advertising

Mainz Weather History for the Previous 24 Hours

Scroll right to see more
 ConditionsComfort  
Time TempWeatherWind HumidityBarometerVisibility
10:58 PM
Mon, May 2
53 °FClear.No wind63%30.10 "HgN/A
9:58 PM56 °FClear.6 mph54%30.10 "HgN/A
8:58 PM63 °FSunny.1 mph40%30.09 "HgN/A
7:58 PM66 °FSunny.1 mph35%30.09 "HgN/A
6:58 PM66 °FSunny.6 mph37%30.10 "HgN/A
5:58 PM68 °FSunny.5 mph36%30.11 "HgN/A
4:58 PM68 °FSunny.6 mph35%30.12 "HgN/A
3:58 PM66 °FSunny.7 mph40%30.15 "HgN/A
2:58 PM66 °FSunny.7 mph38%30.16 "HgN/A
1:58 PM64 °FSunny.5 mph37%30.19 "HgN/A
12:58 PM64 °FSunny.6 mph40%30.21 "HgN/A
11:58 AM62 °FSunny.7 mph40%30.22 "HgN/A
10:58 AM61 °FSunny.8 mph45%30.24 "HgN/A
9:58 AM59 °FSunny.7 mph51%30.25 "HgN/A
8:58 AM56 °FSunny.5 mph58%30.27 "HgN/A
7:58 AM51 °FSunny.2 mph73%30.27 "HgN/A
6:58 AM48 °FClear.1 mph79%30.27 "HgN/A
5:58 AM48 °FClear.8 mph82%30.25 "HgN/A
4:58 AM48 °FClear.7 mph79%30.25 "HgN/A
3:58 AM50 °FClear.8 mph75%30.27 "HgN/A
2:58 AM50 °FClear.5 mph76%30.27 "HgN/A
1:58 AM52 °FClear.9 mph66%30.27 "HgN/A
12:58 AM54 °FClear.7 mph63%30.25 "HgN/A
Weather by CustomWeather, © 2016

See weather overviewHow to use our weather pages